Terminal Aerodrome Forecast
Issued by NWS Greer, SC

Home | Current Version | Previous Version | Text Only | Print | Product List | Glossary On
Versions: 1 2 3 4 5 6 7 8 9 10 11 12 13 14 15 16 17 18 19 20 21 22 23 24 25 26 27 28 29 30 31 32 33 34 35 36 37 38 39 40 41 42 43 44 45 46 47 48 49 50
000
FTUS42 KGSP 282339
TAFCLT
TAF
KCLT 282339Z 0100/0124 04007KT P6SM SCT100 BKN150
     FM010500 06006KT P6SM OVC030
     FM011000 03005KT 5SM -FZRA BR OVC015
     FM011200 01004KT 4SM -FZRA BR OVC008
     FM011400 02004KT 6SM -RA OVC005=

USA.gov is the U.S. government's official web portal to all federal, state and local government web resources and services.